�������l�o���
Date,Time,MP-1(��Sv/h),MP-2(��Sv/h),MP-3(��Sv/h),MP-4(��Sv/h),MP-5(��Sv/h),MP-6(��Sv/h),MP-7(��Sv/h),MP-8(��Sv/h),����,����(m/s),���J
2023/03/16,00:00,0.562,0.825,0.496,1.038,0.728,0.320,0.578,0.552,��,4.8,��
2023/03/16,00:10,0.561,0.825,0.497,1.038,0.728,0.321,0.577,0.552,��,3.9,��
2023/03/16,00:20,0.563,0.824,0.498,1.039,0.728,0.320,0.578,0.551,��,2.5,��
2023/03/16,00:30,0.563,0.824,0.499,1.039,0.728,0.321,0.579,0.551,��쐼,2.6,��
2023/03/16,00:40,0.565,0.823,0.498,1.037,0.728,0.320,0.582,0.553,��쐼,2.5,��
2023/03/16,00:50,0.562,0.823,0.498,1.041,0.728,0.320,0.578,0.553,��,1.7,��
2023/03/16,01:00,0.563,0.826,0.498,1.037,0.727,0.321,0.580,0.551,��,1.7,��
2023/03/16,01:10,0.563,0.823,0.498,1.038,0.728,0.321,0.577,0.552,��,1.7,��
2023/03/16,01:20,0.563,0.823,0.497,1.037,0.729,0.321,0.579,0.551,��쓌,1.7,��
2023/03/16,01:30,0.563,0.823,0.497,1.037,0.729,0.321,0.579,0.553,�쓌,0.9,��
2023/03/16,01:40,0.564,0.825,0.497,1.038,0.727,0.321,0.579,0.552,�쓌,1.2,��
2023/03/16,01:50,0.563,0.823,0.498,1.040,0.728,0.321,0.580,0.550,��쓌,1.2,��
2023/03/16,02:00,0.562,0.823,0.497,1.039,0.728,0.321,0.580,0.553,�쓌,1.2,��
2023/03/16,02:10,0.563,0.824,0.498,1.038,0.727,0.322,0.581,0.551,-,CALM,��
2023/03/16,02:20,0.563,0.824,0.498,1.038,0.726,0.319,0.579,0.550,��,0.8,��
2023/03/16,02:30,0.561,0.825,0.499,1.039,0.729,0.321,0.579,0.551,-,CALM,��
2023/03/16,02:40,0.563,0.825,0.496,1.040,0.727,0.321,0.580,0.553,�k��,2.3,��
2023/03/16,02:50,0.563,0.826,0.498,1.040,0.729,0.320,0.580,0.554,�k��,2.3,��
2023/03/16,03:00,0.562,0.824,0.498,1.038,0.729,0.320,0.580,0.551,�k��,3.1,��
2023/03/16,03:10,0.562,0.825,0.498,1.038,0.728,0.321,0.580,0.554,�k��,2.9,��
2023/03/16,03:20,0.562,0.823,0.498,1.041,0.730,0.322,0.579,0.553,�k��,3.0,��
2023/03/16,03:30,0.563,0.825,0.498,1.040,0.728,0.320,0.579,0.551,�k��,3.2,��
2023/03/16,03:40,0.562,0.825,0.498,1.038,0.727,0.321,0.581,0.551,�k��,3.2,��
2023/03/16,03:50,0.561,0.821,0.498,1.039,0.727,0.321,0.578,0.553,�k�k��,3.7,��
2023/03/16,04:00,0.563,0.825,0.498,1.039,0.729,0.320,0.579,0.552,�k��,1.4,��
2023/03/16,04:10,0.562,0.824,0.499,1.040,0.729,0.321,0.579,0.551,�k�k��,3.5,��
2023/03/16,04:20,0.564,0.823,0.499,1.039,0.729,0.320,0.580,0.553,�k�k��,4.3,��
2023/03/16,04:30,0.562,0.821,0.498,1.038,0.728,0.321,0.578,0.552,�k�k��,2.3,��
2023/03/16,04:40,0.563,0.823,0.498,1.039,0.727,0.321,0.579,0.551,�k�k��,2.2,��
2023/03/16,04:50,0.564,0.823,0.498,1.040,0.726,0.321,0.579,0.552,�k��,2.0,��
2023/03/16,05:00,0.561,0.823,0.497,1.038,0.727,0.321,0.581,0.552,�k��,2.6,��
2023/03/16,05:10,0.563,0.823,0.499,1.041,0.728,0.321,0.580,0.552,�k��,2.5,��
2023/03/16,05:20,0.562,0.823,0.497,1.039,0.727,0.320,0.579,0.552,�k��,2.5,��
2023/03/16,05:30,0.561,0.823,0.497,1.039,0.727,0.321,0.580,0.550,�k��,2.8,��
2023/03/16,05:40,0.561,0.822,0.496,1.040,0.728,0.320,0.579,0.552,�k��,2.2,��
2023/03/16,05:50,0.562,0.824,0.497,1.039,0.726,0.320,0.579,0.551,�k�k��,2.3,��
2023/03/16,06:00,0.563,0.824,0.498,1.040,0.726,0.322,0.579,0.552,�k,2.6,��
2023/03/16,06:10,0.562,0.823,0.497,1.038,0.728,0.320,0.579,0.551,�k,2.2,��
2023/03/16,06:20,0.563,0.823,0.498,1.038,0.728,0.320,0.581,0.552,�k�k��,2.0,��
2023/03/16,06:30,0.563,0.821,0.499,1.038,0.727,0.320,0.579,0.553,�k�k��,2.0,��
2023/03/16,06:40,0.561,0.822,0.497,1.040,0.727,0.321,0.579,0.552,�k��,1.7,��
2023/03/16,06:50,0.562,0.823,0.498,1.040,0.729,0.321,0.581,0.551,�k��,0.8,��
2023/03/16,07:00,0.563,0.823,0.499,1.037,0.728,0.320,0.580,0.553,�k�k��,1.5,��
2023/03/16,07:10,0.562,0.823,0.498,1.040,0.729,0.321,0.581,0.552,�k�k��,2.8,��
2023/03/16,07:20,0.563,0.822,0.498,1.041,0.728,0.321,0.579,0.553,�k�k��,2.0,��
2023/03/16,07:30,0.563,0.826,0.498,1.039,0.726,0.320,0.582,0.552,�k�k��,1.2,��
2023/03/16,07:40,0.563,0.824,0.498,1.040,0.726,0.320,0.580,0.552,�k�k��,1.7,��
2023/03/16,07:50,0.563,0.826,0.499,1.039,0.729,0.320,0.581,0.553,�k��,0.9,��
2023/03/16,08:00,0.564,0.822,0.498,1.039,0.727,0.322,0.582,0.552,-,CALM,��
2023/03/16,08:10,0.561,0.823,0.498,1.039,0.725,0.319,0.581,0.551,-,CALM,��
2023/03/16,08:20,0.560,0.823,0.498,1.042,0.727,0.320,0.582,0.552,��쓌,0.9,��
2023/03/16,08:30,0.564,0.824,0.498,1.039,0.728,0.320,0.580,0.551,��쓌,1.5,��
2023/03/16,08:40,0.560,0.822,0.499,1.040,0.729,0.320,0.581,0.553,��쓌,2.0,��
2023/03/16,08:50,0.565,0.821,0.498,1.040,0.727,0.319,0.581,0.553,��쓌,3.6,��
2023/03/16,09:00,0.564,0.821,0.501,1.039,0.728,0.320,0.578,0.554,�쓌,3.3,��
2023/03/16,09:10,0.565,0.822,0.498,1.039,0.729,0.321,0.580,0.553,��쓌,4.2,��
2023/03/16,09:20,0.564,0.822,0.500,1.042,0.728,0.321,0.579,0.552,�쓌,4.1,��
2023/03/16,09:30,0.565,0.825,0.500,1.040,0.729,0.323,0.580,0.553,��쓌,4.2,��
2023/03/16,09:40,0.565,0.823,0.500,1.041,0.729,0.320,0.580,0.551,��쓌,5.6,��
2023/03/16,09:50,0.565,0.823,0.501,1.041,0.729,0.321,0.579,0.550,��쓌,5.9,��
2023/03/16,10:00,0.564,0.823,0.518,1.043,0.732,0.321,0.580,0.551,��쓌,6.7,��
2023/03/16,10:10,0.565,0.822,0.501,1.040,0.730,0.321,0.582,0.550,��쓌,5.5,��
2023/03/16,10:20,0.565,0.820,0.501,1.042,0.730,0.322,0.580,0.550,��쓌,6.0,��
2023/03/16,10:30,0.564,0.819,0.500,1.041,0.729,0.321,0.581,0.550,��쓌,5.9,��
2023/03/16,10:40,0.565,0.822,0.499,1.040,0.728,0.320,0.580,0.550,��쓌,6.7,��
2023/03/16,10:50,0.566,0.822,0.500,1.038,0.728,0.321,0.580,0.551,��쓌,7.8,��
2023/03/16,11:00,0.567,0.825,0.500,1.041,0.729,0.321,0.580,0.548,��쓌,9.7,��
2023/03/16,11:10,0.564,0.823,0.499,1.043,0.729,0.321,0.581,0.552,��쓌,10.2,��
2023/03/16,11:20,0.565,0.826,0.501,1.040,0.729,0.321,0.581,0.549,��쓌,10.6,��
2023/03/16,11:30,0.566,0.822,0.500,1.042,0.729,0.320,0.582,0.551,��쓌,10.3,��
2023/03/16,11:40,0.566,0.825,0.499,1.040,0.729,0.316,0.581,0.550,��쓌,10.5,��
2023/03/16,11:50,0.566,0.826,0.500,1.040,0.729,0.319,0.581,0.548,��쓌,10.3,��
2023/03/16,12:00,0.566,0.827,0.501,1.042,0.728,0.322,0.582,0.550,��쓌,11.4,��
2023/03/16,12:10,0.567,0.826,0.500,1.042,0.731,0.320,0.583,0.550,��쓌,10.2,��
2023/03/16,12:20,0.567,0.826,0.499,1.044,0.729,0.320,0.583,0.550,��쓌,11.8,��
2023/03/16,12:30,0.567,0.828,0.500,1.042,0.731,0.320,0.582,0.552,��쓌,11.9,��
2023/03/16,12:40,0.567,0.825,0.499,1.042,0.729,0.322,0.580,0.549,��쓌,9.5,��
2023/03/16,12:50,0.566,0.824,0.499,1.042,0.731,0.321,0.583,0.551,��,10.5,��
2023/03/16,13:00,0.567,0.825,0.498,1.044,0.731,0.322,0.583,0.551,��쓌,10.9,��
2023/03/16,13:10,0.567,0.827,0.499,1.042,0.729,0.322,0.582,0.551,��쓌,11.8,��
2023/03/16,13:20,0.567,0.828,0.498,1.041,0.730,0.322,0.581,0.551,��,11.6,��
2023/03/16,13:30,0.565,0.826,0.500,1.042,0.731,0.322,0.584,0.551,��쓌,10.5,��
2023/03/16,13:40,0.566,0.825,0.501,1.043,0.730,0.321,0.584,0.552,��쓌,12.4,��
2023/03/16,13:50,0.567,0.825,0.499,1.042,0.732,0.321,0.583,0.551,��,10.5,��
2023/03/16,14:00,0.568,0.826,0.500,1.041,0.732,0.320,0.583,0.551,��쓌,12.4,��
2023/03/16,14:10,0.568,0.823,0.500,1.042,0.732,0.322,0.584,0.552,��쓌,12.4,��
2023/03/16,14:20,0.566,0.825,0.500,1.043,0.733,0.321,0.584,0.550,��쓌,11.6,��
2023/03/16,14:30,0.567,0.825,0.500,1.040,0.731,0.322,0.584,0.551,��쓌,12.4,��
2023/03/16,14:40,0.567,0.826,0.501,1.043,0.732,0.320,0.583,0.552,��쓌,10.3,��
2023/03/16,14:50,0.568,0.827,0.500,1.041,0.732,0.321,0.583,0.550,��쓌,11.3,��
2023/03/16,15:00,0.568,0.826,0.499,1.044,0.733,0.320,0.582,0.550,��쓌,11.3,��
2023/03/16,15:10,0.568,0.828,0.501,1.045,0.732,0.322,0.583,0.552,��쓌,9.8,��
2023/03/16,15:20,0.567,0.827,0.499,1.045,0.730,0.321,0.583,0.552,��,9.2,��
2023/03/16,15:30,0.567,0.826,0.500,1.045,0.732,0.322,0.583,0.551,��쓌,10.0,��
2023/03/16,15:40,0.567,0.827,0.499,1.043,0.731,0.321,0.582,0.552,��,10.5,��
2023/03/16,15:50,0.568,0.828,0.501,1.042,0.732,0.323,0.582,0.550,��,9.5,��
2023/03/16,16:00,0.569,0.825,0.500,1.044,0.731,0.322,0.584,0.552,��쓌,9.6,��
2023/03/16,16:10,0.568,0.828,0.499,1.043,0.734,0.323,0.582,0.551,��쓌,9.1,��
2023/03/16,16:20,0.566,0.827,0.499,1.043,0.731,0.322,0.581,0.553,��,10.5,��
2023/03/16,16:30,0.567,0.827,0.498,1.045,0.730,0.322,0.582,0.550,��쓌,9.3,��
2023/03/16,16:40,0.567,0.827,0.500,1.044,0.730,0.322,0.583,0.551,��,8.2,��
2023/03/16,16:50,0.568,0.829,0.499,1.043,0.732,0.320,0.583,0.552,��,8.4,��
2023/03/16,17:00,0.567,0.826,0.500,1.045,0.731,0.322,0.583,0.551,��,8.9,��
2023/03/16,17:10,0.568,0.827,0.502,1.044,0.732,0.322,0.583,0.552,��,8.7,��
2023/03/16,17:20,0.567,0.828,0.500,1.044,0.730,0.322,0.582,0.552,��,8.0,��
2023/03/16,17:30,0.568,0.827,0.501,1.046,0.732,0.322,0.584,0.551,��,8.9,��
2023/03/16,17:40,0.570,0.829,0.501,1.044,0.733,0.323,0.582,0.553,��,8.7,��
2023/03/16,17:50,0.568,0.830,0.502,1.042,0.732,0.323,0.583,0.553,��,7.7,��
2023/03/16,18:00,0.569,0.829,0.502,1.043,0.732,0.321,0.583,0.554,��,8.6,��
2023/03/16,18:10,0.569,0.831,0.504,1.044,0.733,0.324,0.583,0.554,��,8.6,��
2023/03/16,18:20,0.570,0.831,0.504,1.044,0.734,0.324,0.583,0.552,��,7.2,��
2023/03/16,18:30,0.572,0.829,0.503,1.044,0.734,0.324,0.584,0.554,��,7.2,��
2023/03/16,18:40,0.569,0.831,0.503,1.044,0.735,0.323,0.584,0.553,��,6.7,��
2023/03/16,18:50,0.571,0.829,0.503,1.044,0.735,0.323,0.584,0.553,��쐼,6.0,��
2023/03/16,19:00,0.569,0.830,0.502,1.045,0.734,0.324,0.584,0.553,��쐼,5.6,��
2023/03/16,19:10,0.570,0.831,0.501,1.045,0.733,0.324,0.583,0.554,��쐼,5.2,��
2023/03/16,19:20,0.571,0.833,0.503,1.042,0.735,0.325,0.584,0.553,��쐼,4.3,��
2023/03/16,19:30,0.571,0.831,0.503,1.043,0.733,0.324,0.584,0.552,��쐼,3.3,��
2023/03/16,19:40,0.569,0.830,0.503,1.043,0.734,0.324,0.584,0.555,�쐼,4.7,��
2023/03/16,19:50,0.569,0.832,0.501,1.043,0.735,0.325,0.583,0.555,���쐼,3.9,��
2023/03/16,20:00,0.570,0.830,0.502,1.044,0.734,0.324,0.583,0.552,���쐼,3.2,��
2023/03/16,20:10,0.569,0.831,0.501,1.042,0.735,0.323,0.583,0.553,�쐼,3.4,��
2023/03/16,20:20,0.571,0.829,0.503,1.044,0.734,0.324,0.585,0.555,���쐼,2.6,��
2023/03/16,20:30,0.570,0.830,0.501,1.046,0.734,0.324,0.584,0.553,��,2.2,��
2023/03/16,20:40,0.570,0.830,0.502,1.045,0.736,0.323,0.586,0.553,��쐼,2.3,��
2023/03/16,20:50,0.569,0.829,0.502,1.043,0.736,0.324,0.583,0.553,�쐼,3.3,��
2023/03/16,21:00,0.571,0.829,0.502,1.045,0.734,0.324,0.585,0.552,���쐼,3.4,��
2023/03/16,21:10,0.571,0.829,0.501,1.043,0.735,0.322,0.584,0.553,���쐼,3.9,��
2023/03/16,21:20,0.569,0.829,0.501,1.045,0.734,0.323,0.583,0.553,���쐼,3.7,��
2023/03/16,21:30,0.569,0.829,0.503,1.045,0.734,0.323,0.583,0.553,���쐼,3.4,��
2023/03/16,21:40,0.568,0.830,0.503,1.045,0.734,0.323,0.584,0.553,���쐼,3.3,��
2023/03/16,21:50,0.569,0.831,0.502,1.045,0.733,0.325,0.584,0.554,���쐼,4.4,��
2023/03/16,22:00,0.569,0.830,0.502,1.044,0.734,0.324,0.582,0.554,���쐼,3.9,��
2023/03/16,22:10,0.568,0.831,0.503,1.044,0.731,0.323,0.582,0.553,�쐼,2.6,��
2023/03/16,22:20,0.569,0.832,0.502,1.044,0.734,0.323,0.583,0.555,���쐼,4.9,��
2023/03/16,22:30,0.568,0.829,0.501,1.044,0.733,0.324,0.583,0.552,���쐼,4.8,��
2023/03/16,22:40,0.570,0.829,0.502,1.044,0.734,0.325,0.585,0.553,���쐼,4.1,��
2023/03/16,22:50,0.569,0.831,0.502,1.045,0.732,0.324,0.583,0.552,��,3.3,��
2023/03/16,23:00,0.571,0.828,0.501,1.045,0.731,0.323,0.585,0.554,��,2.5,��
2023/03/16,23:10,0.570,0.828,0.501,1.043,0.733,0.324,0.583,0.553,���k��,1.4,��
2023/03/16,23:20,0.568,0.831,0.502,1.043,0.732,0.323,0.583,0.553,�k��,3.3,��
2023/03/16,23:30,0.570,0.828,0.501,1.044,0.732,0.323,0.584,0.553,���k��,3.4,��
2023/03/16,23:40,0.568,0.830,0.502,1.044,0.736,0.323,0.583,0.552,���k��,5.9,��
2023/03/16,23:50,0.570,0.832,0.502,1.045,0.734,0.322,0.583,0.553,���k��,4.6,��
